Weather History for KSNY - August, 2013

Change the Weather History Date:

Tuesday, August 20, 2013

  Actual Average Record
Temperature  
Mean Temperature 82 °F 73 °F  
Max Temperature 101 °F 88 °F 101 °F (2013)
Min Temperature 62 °F 58 °F 39 °F (1978)
Degree Days  
Heating Degree Days 0 0  
Month to date heating degree days 1 0  
Since 1 June heating degree days 46 62  
Since 1 July heating degree days 9 3  
Cooling Degree Days 17 8  
Month to date cooling degree days 133 187  
Year to date cooling degree days 604 665  
Since 1 June cooling degree days 571 643  
Growing Degree Days 32 (Base 50)    
Moisture  
Dew Point 50 °F    
Average Humidity 43    
Maximum Humidity 73    
Minimum Humidity 12    
Precipitation  
Precipitation 0.00 in 0.06 in 0.45 in (1979)
Month to date precipitation 0.70 1.53  
Year to date precipitation 8.18 14.43  
Sea Level Pressure  
Sea Level Pressure 29.82 in    
Wind  
Wind Speed 13 mph (SSW)    
Max Wind Speed 24 mph    
Max Gust Speed 32 mph    
Visibility 10 miles    
Events      
T = Trace of Precipitation, MM = Missing Value Source: NWS Daily Summary

Daily Weather History Graph

Daily Weather History Graph

Search for Another Location

Airport or City:

Trip Planner

Search our weather history database for the weather conditions in past years. The results will help you decide how hot, cold, wet, or windy it might be!

Date:

Astronomy

Aug. 20, 2013 Rise Set
Actual Time 6:06 AM MDT 7:42 PM MDT
Civil Twilight 5:37 AM MDT 8:11 PM MDT
Nautical Twilight 5:02 AM MDT 8:47 PM MDT
Astronomical Twilight 4:24 AM MDT 9:24 PM MDT
Moon 7:15 PM MDT (8/20) 5:39 AM MDT (8/20)
Length of Visible Light 14h 34m
Length of Day
13h 36m
Full, 100% of the Moon is Illuminated
Aug 20
Full
Aug 20
Full
Aug 28
Last Quarter
Sep 5
New
Sep 12
First Quarter

Hourly Weather History & Observations

Time (MDT) Temp. Heat Index Dew Point Humidity Pressure Visibility Wind Dir Wind Speed Gust Speed Precip Events Conditions
12:53 AM 70.0 °F - 57.0 °F 63% 29.86 in 10.0 mi SSW 11.5 mph - N/A   Clear
1:53 AM 70.0 °F - 55.9 °F 61% 29.83 in 10.0 mi SW 11.5 mph - N/A   Clear
2:53 AM 70.0 °F - 55.9 °F 61% 29.83 in 10.0 mi SW 11.5 mph - N/A   Clear
3:53 AM 68.0 °F - 55.9 °F 65% 29.81 in 10.0 mi SW 10.4 mph - N/A   Clear
4:53 AM 66.9 °F - 55.9 °F 68% 29.81 in 10.0 mi SW 11.5 mph - N/A   Clear
5:53 AM 64.9 °F - 55.9 °F 73% 29.82 in 10.0 mi SW 11.5 mph - N/A   Clear
6:53 AM 64.0 °F - 55.9 °F 75% 29.84 in 10.0 mi SW 9.2 mph - N/A   Clear
7:53 AM 73.0 °F - 55.0 °F 53% 29.86 in 10.0 mi SW 6.9 mph - N/A   Clear
8:53 AM 82.9 °F 81.8 °F 53.1 °F 36% 29.84 in 10.0 mi SSW 10.4 mph - N/A   Clear
9:53 AM 91.0 °F - 46.9 °F 22% 29.83 in 10.0 mi SSW 16.1 mph - N/A   Clear
10:53 AM 93.9 °F - 48.0 °F 21% 29.83 in 10.0 mi South 16.1 mph 25.3 mph N/A   Clear
11:53 AM 95.0 °F - 46.9 °F 19% 29.83 in 10.0 mi South 19.6 mph 27.6 mph N/A   Clear
12:53 PM 99.0 °F - 39.9 °F 13% 29.81 in 10.0 mi South 15.0 mph 28.8 mph N/A   Clear
1:53 PM 100.0 °F - 39.0 °F 12% 29.80 in 10.0 mi South 15.0 mph 26.5 mph N/A   Clear
2:53 PM 100.0 °F - 39.0 °F 12% 29.78 in 10.0 mi SSE 17.3 mph 29.9 mph N/A   Clear
3:53 PM 98.1 °F - 39.9 °F 13% 29.78 in 10.0 mi South 19.6 mph 28.8 mph N/A   Clear
4:53 PM 96.1 °F - 41.0 °F 15% 29.78 in 10.0 mi South 20.7 mph 26.5 mph N/A   Clear
5:53 PM 93.0 °F - 42.1 °F 17% 29.80 in 10.0 mi SSE 20.7 mph 26.5 mph N/A   Clear
6:53 PM 89.1 °F - 45.0 °F 22% 29.81 in 10.0 mi South 13.8 mph - N/A   Clear
7:53 PM 82.9 °F - 46.9 °F 28% 29.82 in 10.0 mi South 10.4 mph - N/A   Clear
8:53 PM 77.0 °F - 48.0 °F 36% 29.83 in 10.0 mi South 10.4 mph - N/A   Clear
9:53 PM 75.9 °F - 53.1 °F 45% 29.83 in 10.0 mi South 10.4 mph - N/A   Clear
10:53 PM 73.9 °F - 55.0 °F 52% 29.85 in 10.0 mi SW 6.9 mph - N/A   Clear
11:53 PM 68.0 °F - 57.0 °F 68% 29.85 in 10.0 mi South 8.1 mph - N/A   Clear